Regional Weather Roundup
Issued by NWS

Home | Current Version | Previous Version | Text Only | Print | Product List | Glossary On
Versions: 1 2 3 4 5 6 7 8 9 10 11 12 13 14 15 16 17 18 19 20 21 22 23 24 25 26 27 28 29 30 31 32 33 34 35 36 37 38 39 40 41 42 43 44 45 46 47 48 49 50
000
ASUS43 KTOP 251708
RWRKS

WEATHER ROUNDUP FOR KANSAS
NATIONAL WEATHER SERVICE GOODLAND KS
1200 PM CDT MON MAY 25 2015

NOTE:  "FAIR" INDICATES FEW OR NO CLOUDS BELOW 12,000 FEET WITH NO
SIGNIFICANT WEATHER AND/OR OBSTRUCTIONS TO VISIBILITY.

KSZ001>006-013>018-027>032-041>047-251800-
NORTHWEST KANSAS

CITY           SKY/WX    TMP DP  RH WIND       PRES   REMARKS
GOODLAND       MOSUNNY   64  51  62 NW14      29.84S
HAYS           CLOUDY    64  55  72 S9        29.84R
HILL CITY      MOSUNNY   69  55  60 S8        29.82R
RUSSELL        CLOUDY    66  62  87 S14       29.82R
$$

KSZ061>065-074>080-084>089-251800-
SOUTHWEST KANSAS

CITY           SKY/WX    TMP DP  RH WIND       PRES   REMARKS
DODGE CITY     MOSUNNY   67  58  72 VRB3      29.84S
ELKHART          N/A     68  47  47 E5          N/A
GARDEN CITY    SUNNY     66  54  65 N8        29.85R
GREAT BEND     CLOUDY    66  61  82 W6        29.82S
LIBERAL        PTSUNNY   68  57  68 N6        29.87F
PRATT          PTSUNNY   73  61  64 S16       29.82S
$$

KSZ066>073-081>083-090>101-251800-
SOUTHEAST KANSAS

CITY           SKY/WX    TMP DP  RH WIND       PRES   REMARKS
CHANUTE        CLOUDY    75  67  76 S17G23    29.91R
COFFEYVILLE    CLOUDY    74  68  81 S15       29.92S
HUTCHINSON     CLOUDY    75  66  73 S14       29.82F
MEDICINE LODGE   N/A     77  66  68 S16       29.80F
NEWTON         CLOUDY    72  64  78 S16       29.85F
PARSONS        CLOUDY    76  68  76 S15G23    29.93S
WICHITA INTL   PTSUNNY   76  67  73 S25G33    29.82S
WICHITA JABRA  PTSUNNY   74  67  78 S24G31    29.83S
WICHITA MCCONL CLOUDY    74  68  79 S20G28    29.84S
WINFIELD       MOSUNNY   76  68  76 S21G29    29.87F
$$

KSZ007>012-019>026-033>040-048>060-102>105-251800-
NORTHEAST KANSAS

CITY           SKY/WX    TMP DP  RH WIND       PRES   REMARKS
CONCORDIA      CLOUDY    68  62  81 S20       29.83R
EMPORIA        CLOUDY    73  65  75 S22G29    29.86R
LAWRENCE       MOSUNNY   75  63  66 S16G24    29.87S
MANHATTAN      PTSUNNY   73  63  70 S17G29    29.85R
OLATHE IND     MOSUNNY   74  65  73 S17G25    29.89S
OLATHE EXE     PTSUNNY   73  64  73 S15G26    29.89R
SALINA         CLOUDY    72  63  73 S12G23    29.83F
TOPEKA BILLARD PTSUNNY   74  63  68 S18G24    29.87R
TOPEKA FORBES  PTSUNNY   74  62  66 S16G25    29.87R
$$


USA.gov is the U.S. government's official web portal to all federal, state and local government web resources and services.